Flag for Chile Weather past 2 weeks in Concepción, Chile

Now
61 °F

Clear.


Feels Like: 61 °F
Forecast: 49 / 68 °F
Wind: 10 mph from Southwest

Location: Concepcion Airport

Current Time: Mar 31, 2015 at 9:42:24 PM

Latest Report: Mar 31, 2015 at 9:00 PM


Visibility: 10 mi

Pressure: 30.04 "Hg

Humidity: 68%

Dew point: 50 °F

Location of ConcepciónLocation

Historic Weather in Concepción — Graph

°F

Concepción temperature yesterday

Maximum temperature yesterday: 70 °F (at 3:00 PM)
Minimum temperature yesterday: 45 °F (at 8:00 AM)
Average temperature yesterday: 58 °F

Past Weeks' High & Low Weather Summary

 TemperatureHumidityPressure
High82 °F (Mar 20, 3:00 PM)100% (Mar 17, 6:00 AM)30.21 "Hg (Mar 17, 6:00 AM)
Low36 °F (Mar 22, 2:00 PM)30% (Mar 21, 5:00 PM)29.86 "Hg (Mar 25, 5:00 PM)
Average63 °F75%30.02 "Hg
* Reported Mar 16 7:00 PM — Mar 31 7:00 PM, Concepción, Weather by CustomWeather, © 2015

Note: Actual official high and low records may vary slightly from our data, if they occured in-between our weather recording intervals... More about our weather records

Advertising

Concepción weather history for previous 24 hours

 ConditionsComfort  
Time TempWeatherWind HumidityBarometerVisibility
7:00 PM
Tue, Mar 31
66 °FClear.15 mph56%30.01 "Hg10 mi
6:00 PM68 °FSunny.16 mph53%30.04 "Hg10 mi
5:00 PM68 °FSunny.18 mph53%30.04 "Hg10 mi
4:00 PM70 °FSunny.15 mph43%30.07 "Hg10 mi
3:00 PM70 °FSunny.13 mph38%30.09 "Hg10 mi
2:00 PM68 °FSunny.13 mph46%30.12 "Hg10 mi
1:00 PM66 °FPassing clouds.10 mph46%30.12 "HgN/A
12:00 PM63 °FSunny.13 mph52%30.15 "Hg10 mi
11:00 AM59 °FPassing clouds.7 mph55%30.18 "HgN/A
10:00 AM52 °FSunny.6 mph72%30.18 "Hg10 mi
8:00 AM43 °FSunny.6 mph87%30.18 "Hg10 mi
7:00 AM46 °FClear.No wind87%30.18 "Hg10 mi
6:00 AM46 °FClear.6 mph82%30.18 "Hg10 mi
5:00 AM46 °FClear.2 mph87%30.18 "Hg10 mi
4:00 AM46 °FClear.5 mph82%30.21 "Hg10 mi
3:00 AM46 °FClear.5 mph87%30.21 "Hg10 mi
2:00 AM48 °FClear.3 mph87%30.21 "Hg10 mi
12:00 AM54 °FClear.6 mph72%30.21 "Hg10 mi
11:00 PM
Mon, Mar 30
54 °FClear.7 mph72%30.21 "Hg10 mi
10:00 PM57 °FClear.8 mph63%30.18 "Hg10 mi
9:00 PM59 °FClear.15 mph63%30.15 "Hg10 mi
Weather by CustomWeather, © 2015

See weather overviewHow to use our weather pages